FANDOM


The following data is cached, and was last updated 17:54, February 26, 2020. A maximum of 1,000 results are available in the cache.

View (previous 250 | next 250) (20 | 50 | 100 | 250 | 500)

  1. Nameless‏‎ (23:53, September 10, 2011)
  2. Battle of the Wu Dan Mountains‏‎ (01:53, September 12, 2011)
  3. Shantou‏‎ (20:15, June 5, 2012)
  4. Battle of the Under-City‏‎ (03:59, July 15, 2012)
  5. Lei Lang‏‎ (15:44, August 18, 2012)
  6. Butterfly‏‎ (06:17, February 2, 2013)
  7. Battle of the Tortoise Village‏‎ (15:15, June 9, 2013)
  8. Iron Samara‏‎ (21:15, June 18, 2013)
  9. Gong Tau‏‎ (21:04, June 21, 2013)
  10. Festival of Figurines‏‎ (01:40, July 13, 2013)
  11. My Favorite Yao/Quotes‏‎ (18:30, October 10, 2013)
  12. Gahri/Quotes‏‎ (17:33, December 29, 2013)
  13. Fenghuang/Quotes‏‎ (17:50, December 29, 2013)
  14. Scorpion/Quotes‏‎ (17:51, December 29, 2013)
  15. Song/Quotes‏‎ (18:01, December 29, 2013)
  16. Nao Yuedu‏‎ (17:59, February 9, 2014)
  17. Cho Li‏‎ (19:16, February 9, 2014)
  18. Li Ling‏‎ (21:55, February 9, 2014)
  19. Ling‏‎ (22:00, February 9, 2014)
  20. Blade of Bao Ding‏‎ (03:18, February 16, 2014)
  21. Dagger of Deng Wa‏‎ (03:19, February 16, 2014)
  22. In With the Old/Quotes‏‎ (22:33, February 28, 2014)
  23. Kung Fu Club (episode)/Quotes‏‎ (22:34, February 28, 2014)
  24. Secret Formula for Living Clay‏‎ (05:34, March 1, 2014)
  25. Shank of Shantou‏‎ (05:56, March 1, 2014)
  26. Apple Cart Duck/Quotes‏‎ (18:08, March 1, 2014)
  27. Ju-Long/Quotes‏‎ (02:29, March 2, 2014)
  28. Dragon Grotto‏‎ (19:19, March 10, 2014)
  29. Fireworks Factory‏‎ (19:30, March 10, 2014)
  30. Forbidden Forest‏‎ (19:32, March 10, 2014)
  31. Garnet Palace‏‎ (19:37, March 10, 2014)
  32. Jhao Dzuh‏‎ (18:07, March 16, 2014)
  33. Jinzhou Palace‏‎ (18:17, March 16, 2014)
  34. Lin Ju Village‏‎ (18:40, March 16, 2014)
  35. Lu Mong‏‎ (18:43, March 16, 2014)
  36. Monkey's village‏‎ (21:46, March 22, 2014)
  37. Moshu Market‏‎ (21:49, March 22, 2014)
  38. Old Temple Grounds‏‎ (22:24, March 22, 2014)
  39. Thunder Hill‏‎ (16:57, March 23, 2014)
  40. Undercity‏‎ (17:12, March 23, 2014)
  41. Valley of Woe‏‎ (18:11, March 29, 2014)
  42. Wú Zhù Village‏‎ (18:25, March 29, 2014)
  43. Zhu Jian Hot Springs‏‎ (18:31, March 29, 2014)
  44. Shen/Quotes‏‎ (23:16, September 17, 2014)
  45. Gongmen Harbor‏‎ (20:51, October 3, 2014)
  46. Mount Penglai‏‎ (16:09, October 17, 2014)
  47. Boss Wolf/Quotes‏‎ (17:29, October 17, 2014)
  48. Kung Fu Panda 2/Commentary transcript‏‎ (18:35, November 29, 2014)
  49. Kung Fu Panda: Everyone Is Kung Fu Fighting‏‎ (16:22, March 22, 2015)
  50. Kung Fu Panda: The Slow Fast and Other Stories‏‎ (19:24, March 22, 2015)
  51. Kung Fu Panda: Kung Fu Crew‏‎ (19:46, March 22, 2015)
  52. Cheng's village‏‎ (02:16, March 30, 2015)
  53. Baboon Boss‏‎ (04:41, June 13, 2015)
  54. Chinese Pangolin‏‎ (05:20, June 13, 2015)
  55. Fire‏‎ (05:33, June 13, 2015)
  56. Former Mount Penglai Official‏‎ (05:34, June 13, 2015)
  57. Heng‏‎ (05:35, June 13, 2015)
  58. Nokai‏‎ (06:12, June 13, 2015)
  59. Huli‏‎ (06:50, June 13, 2015)
  60. Mu Tong Fields‏‎ (08:52, June 17, 2015)
  61. Rhino's staff‏‎ (08:55, June 17, 2015)
  62. Bamboo Forest‏‎ (06:29, June 18, 2015)
  63. Zhou Dan‏‎ (02:59, June 21, 2015)
  64. Can-Shoo‏‎ (03:11, June 21, 2015)
  65. Cheen-Gwan‏‎ (03:11, June 21, 2015)
  66. Dosu‏‎ (03:12, June 21, 2015)
  67. Guru Llama‏‎ (03:19, June 21, 2015)
  68. Pong‏‎ (03:20, June 21, 2015)
  69. Han Sr.‏‎ (03:20, June 21, 2015)
  70. Piggy‏‎ (03:41, June 21, 2015)
  71. Mayor Pig‏‎ (03:57, June 21, 2015)
  72. Metal‏‎ (03:58, June 21, 2015)
  73. Mr. Liu‏‎ (03:58, June 21, 2015)
  74. Wo Hop‏‎ (19:21, June 22, 2015)
  75. Wa Su Li River‏‎ (15:56, August 3, 2015)
  76. Wen Shen‏‎ (15:58, August 3, 2015)
  77. Onyx Temple‏‎ (16:04, August 3, 2015)
  78. Kung Fu Panda/Commentary transcript‏‎ (23:06, August 19, 2015)
  79. Battle between kung fu masters and Komodo Dragons‏‎ (15:57, August 22, 2015)
  80. Battle between Po and Great Gorilla‏‎ (15:57, August 22, 2015)
  81. Battle between Po and the Wu Sisters‏‎ (14:56, August 23, 2015)
  82. Battle between Po and Zhou Dan‏‎ (15:00, August 23, 2015)
  83. Battle of Tai Lung's Training Grounds‏‎ (17:29, August 25, 2015)
  84. Kung Fu Panda: It's Elemental and Other Stories‏‎ (22:54, October 15, 2015)
  85. Twelve Impossible Moves‏‎ (02:55, November 23, 2015)
  86. Wings of Justice‏‎ (03:01, November 23, 2015)
  87. Stars of Destiny‏‎ (03:01, November 23, 2015)
  88. Puppet of Death‏‎ (03:01, November 23, 2015)
  89. Five Mystic Kung Fu Secrets‏‎ (03:06, November 23, 2015)
  90. Iron Heart‏‎ (03:06, November 23, 2015)
  91. Staying-still-for-a-really-long-time technique‏‎ (03:12, November 23, 2015)
  92. Tai Lung's sword‏‎ (23:35, November 26, 2015)
  93. Gong Lu Medallion‏‎ (23:35, November 26, 2015)
  94. Shuyong seed‏‎ (00:15, November 27, 2015)
  95. Ding's spirit orbs‏‎ (00:15, November 27, 2015)
  96. Whooping Sun Diamond Blade‏‎ (00:15, November 27, 2015)
  97. Secret Scroll‏‎ (00:15, November 27, 2015)
  98. Alabaster Pot of Remembrance‏‎ (00:15, November 27, 2015)
  99. Zhou Deng Soul Gem‏‎ (00:15, November 27, 2015)
  100. Ox's sword‏‎ (00:15, November 27, 2015)
  101. Tri bo yao‏‎ (00:19, November 27, 2015)
  102. Golden Ladle‏‎ (00:19, November 27, 2015)
  103. Master Oogway painting‏‎ (00:19, November 27, 2015)
  104. Helmet of the Invincible Thunder Kick‏‎ (00:19, November 27, 2015)
  105. Dugong Dagger‏‎ (00:19, November 27, 2015)
  106. Wu Di instruments‏‎ (00:23, November 27, 2015)
  107. Blades of Death‏‎ (00:24, November 27, 2015)
  108. Dragon Chalice‏‎ (00:24, November 27, 2015)
  109. Sun orchid‏‎ (00:24, November 27, 2015)
  110. Croc's cape‏‎ (00:24, November 27, 2015)
  111. Gan Xiang Sapphire‏‎ (00:28, November 27, 2015)
  112. Kung fu relics‏‎ (00:28, November 27, 2015)
  113. Xian Xang‏‎ (00:28, November 27, 2015)
  114. Infinite Obsta-Gauntlet Course of Trapishness‏‎ (00:28, November 27, 2015)
  115. Phantom Crystal‏‎ (00:28, November 27, 2015)
  116. Gong Tau Potion‏‎ (00:28, November 27, 2015)
  117. Shadow Crowns‏‎ (00:30, November 27, 2015)
  118. Stone of Lu Mong‏‎ (00:30, November 27, 2015)
  119. Undertaker's scepter‏‎ (00:30, November 27, 2015)
  120. Xin Ruby‏‎ (00:30, November 27, 2015)
  121. Zhanmadao Sword‏‎ (00:30, November 27, 2015)
  122. Ancient Locking Stocks‏‎ (00:33, November 27, 2015)
  123. Bashing Beam‏‎ (00:33, November 27, 2015)
  124. Botongy plant‏‎ (00:33, November 27, 2015)
  125. Imperial Jewels‏‎ (00:33, November 27, 2015)
  126. Iron turtle shell‏‎ (00:33, November 27, 2015)
  127. Jade Orb of Infinite Power‏‎ (00:34, November 27, 2015)
  128. Logs of Lamentation‏‎ (00:34, November 27, 2015)
  129. Mongolian Fist Demon Jar‏‎ (00:34, November 27, 2015)
  130. Mu Tong root‏‎ (00:34, November 27, 2015)
  131. Old Mill‏‎ (00:46, November 27, 2015)
  132. Serpentine Sea‏‎ (00:46, November 27, 2015)
  133. Tsin's fortress‏‎ (00:46, November 27, 2015)
  134. Ding's Prison Castle‏‎ (00:51, November 27, 2015)
  135. Kung Fu Express Headquarters‏‎ (00:51, November 27, 2015)
  136. Gongmen Jail‏‎ (00:51, November 27, 2015)
  137. Viper's village‏‎ (00:51, November 27, 2015)
  138. Muchang Township‏‎ (00:51, November 27, 2015)
  139. Secret Museum of Kung Fu‏‎ (00:51, November 27, 2015)
  140. Desert of Desertion‏‎ (00:54, November 27, 2015)
  141. Canyon of the Shrieking Wind‏‎ (00:54, November 27, 2015)
  142. Hubei Volcano‏‎ (00:54, November 27, 2015)
  143. Shantou Palace‏‎ (00:54, November 27, 2015)
  144. Canyon You Should Never Cross‏‎ (00:54, November 27, 2015)
  145. Bridge of Mists‏‎ (00:57, November 27, 2015)
  146. Camelback Mountain‏‎ (00:57, November 27, 2015)
  147. Cave of Mysteries‏‎ (00:57, November 27, 2015)
  148. Chen Wei‏‎ (00:57, November 27, 2015)
  149. Children's Hospital‏‎ (00:57, November 27, 2015)
  150. Corridor of Unbelievable Agony‏‎ (00:57, November 27, 2015)
  151. Dragon's Den‏‎ (00:57, November 27, 2015)
  152. Forest of Isolation‏‎ (00:57, November 27, 2015)
  153. Valley of Peace Cemetery‏‎ (01:00, November 27, 2015)
  154. Valley of the Scorpion‏‎ (01:00, November 27, 2015)
  155. Tortoise Village‏‎ (01:00, November 27, 2015)
  156. Tai Yang Temple‏‎ (01:00, November 27, 2015)
  157. Grain Mill‏‎ (01:03, November 27, 2015)
  158. Imperial Museum‏‎ (01:03, November 27, 2015)
  159. Jagged Cliffs of Death‏‎ (01:03, November 27, 2015)
  160. Jong's Land‏‎ (01:03, November 27, 2015)
  161. Kabuki Crest‏‎ (01:03, November 27, 2015)
  162. Kong Bai Stadium‏‎ (01:03, November 27, 2015)
  163. Mantis' village‏‎ (01:03, November 27, 2015)
  164. Ya Ya‏‎ (03:25, January 14, 2016)
  165. Belt of Cosmic Cohesion‏‎ (05:22, January 21, 2016)
  166. Many-Faced Mask of Mong‏‎ (05:25, January 21, 2016)
  167. Mist of Morpheus‏‎ (22:02, January 21, 2016)
  168. Kung Fu Panda 3/Quotes‏‎ (19:15, January 26, 2016)
  169. Oogway's statue‏‎ (16:34, January 30, 2016)
  170. Ho the Huge-Headed‏‎ (15:26, January 31, 2016)
  171. Jade Mountain‏‎ (04:40, February 2, 2016)
  172. Qidan bell trap‏‎ (00:04, February 10, 2016)
  173. Kung Fu Panda Holiday/Transcript‏‎ (01:05, February 10, 2016)
  174. Tong Fo's hideout‏‎ (17:58, February 16, 2016)
  175. Kung fu invention‏‎ (18:10, February 16, 2016)
  176. Spinning-blade staff‏‎ (18:11, February 16, 2016)
  177. Flying Bamboo Bird of Incalculable Retribution‏‎ (18:11, February 16, 2016)
  178. Whirling Thing of Unimaginable Retaliation‏‎ (18:15, February 16, 2016)
  179. Auto-ambulated Adapto-bot‏‎ (18:16, February 16, 2016)
  180. Iron Claws of Doom‏‎ (02:56, February 19, 2016)
  181. Jinzhou‏‎ (06:10, February 19, 2016)
  182. Bell tower‏‎ (05:24, February 20, 2016)
  183. Jin Tian's Tempest‏‎ (16:06, February 22, 2016)
  184. Komodo Dragon Invasion‏‎ (16:38, February 24, 2016)
  185. Great Wall of China‏‎ (23:36, February 28, 2016)
  186. Hundun's Noodle Shop‏‎ (23:38, February 28, 2016)
  187. Juggernaut‏‎ (00:09, March 31, 2016)
  188. Lee Da Kung Fu Academy‏‎ (20:29, March 31, 2016)
  189. Mystical Dagger‏‎ (00:45, April 3, 2016)
  190. Midnight Stranger‏‎ (19:59, April 4, 2016)
  191. Good Po‏‎ (08:12, April 11, 2016)
  192. Lake of Tears‏‎ (13:26, June 8, 2016)
  193. Demon Mountain‏‎ (19:12, June 9, 2016)
  194. Self-Punching Technique‏‎ (14:07, June 12, 2016)
  195. Mountain Pass‏‎ (14:33, June 15, 2016)
  196. Crimson Princess‏‎ (14:32, June 16, 2016)
  197. Shan Yue Mountain‏‎ (14:42, June 16, 2016)
  198. Lady Lotus Blossom‏‎ (16:01, June 16, 2016)
  199. River of Flowers‏‎ (16:07, June 16, 2016)
  200. Hajin Province‏‎ (16:10, June 16, 2016)
  201. City of Blissful Fragrance‏‎ (17:13, June 17, 2016)
  202. Ring Blades‏‎ (17:25, June 17, 2016)
  203. Golden Spear‏‎ (14:36, June 18, 2016)
  204. Kung Fu Panda Vol 1‏‎ (14:11, June 20, 2016)
  205. Kung Fu Panda Vol 2‏‎ (14:12, June 20, 2016)
  206. Mask of Triumph‏‎ (14:42, June 20, 2016)
  207. Moon Pool‏‎ (14:45, June 20, 2016)
  208. Dragon costume‏‎ (00:21, June 22, 2016)
  209. Thousand Tongues of Fire‏‎ (14:44, June 22, 2016)
  210. Peach tree sapling‏‎ (15:11, June 22, 2016)
  211. Kung Fu Panda 3/Marketing timeline‏‎ (14:21, June 27, 2016)
  212. Han‏‎ (19:03, June 30, 2016)
  213. Gorilla‏‎ (14:21, July 1, 2016)
  214. Master Viper‏‎ (14:23, July 1, 2016)
  215. Ox‏‎ (14:27, July 1, 2016)
  216. Bad Po‏‎ (14:29, July 1, 2016)
  217. Mill‏‎ (14:30, July 1, 2016)
  218. Birth Place of Kung Fu‏‎ (14:34, July 1, 2016)
  219. Boar‏‎ (14:39, July 1, 2016)
  220. Chang‏‎ (14:41, July 1, 2016)
  221. Dog‏‎ (14:42, July 1, 2016)
  222. Dragon Warrior‏‎ (14:43, July 1, 2016)
  223. Eternal Chord‏‎ (14:44, July 1, 2016)
  224. Fist of Justice‏‎ (14:45, July 1, 2016)
  225. Kung Fu Club‏‎ (14:46, July 1, 2016)
  226. Ladies of the Shade‏‎ (14:51, July 1, 2016)
  227. Legendary Warrior‏‎ (14:53, July 1, 2016)
  228. Leopard‏‎ (14:56, July 1, 2016)
  229. Mei Ling (disambiguation)‏‎ (15:01, July 1, 2016)
  230. Midnight Stranger (disambiguation)‏‎ (15:03, July 1, 2016)
  231. Panda‏‎ (15:06, July 1, 2016)
  232. Panda village‏‎ (15:07, July 1, 2016)
  233. Sheep‏‎ (15:11, July 1, 2016)
  234. Soundtrack‏‎ (15:12, July 1, 2016)
  235. Warrior of Black and White‏‎ (15:12, July 1, 2016)
  236. Xian‏‎ (15:14, July 1, 2016)
  237. Ming‏‎ (14:27, July 2, 2016)
  238. Bear (disambiguation)‏‎ (14:32, July 2, 2016)
  239. Goat‏‎ (18:50, July 6, 2016)
  240. Peach Tree Hill‏‎ (18:01, July 19, 2016)
  241. KG Shaw‏‎ (14:21, July 22, 2016)
  242. Palace Arena‏‎ (23:10, July 27, 2016)
  243. Golden Shield‏‎ (23:32, July 27, 2016)
  244. Seven Swinging Clubs of Instant Oblivion‏‎ (23:37, July 27, 2016)
  245. Emperor Hawk‏‎ (23:58, July 27, 2016)
  246. Ku Ku‏‎ (00:03, July 28, 2016)
  247. Shuai Shuai‏‎ (00:04, July 28, 2016)
  248. Mi‏‎ (00:06, July 28, 2016)
  249. Peony‏‎ (00:06, July 28, 2016)
  250. Lashing Tail of Terror‏‎ (15:24, July 28, 2016)

View (previous 250 | next 250) (20 | 50 | 100 | 250 | 500)

Community content is available under CC-BY-SA unless otherwise noted.